Victorville, CA

9:36 PM PDT on April 26, 2017 (GMT -0700)
Southern California Logistics

Weather History for KVCV - October, 2011

Change the Weather History Date:

Monday, October 17, 2011

  Actual Average (KSBD) Record (KSBD)
Temperature  
Mean Temperature 70 °F -  
Max Temperature 87 °F 83 °F 98 °F (2012)
Min Temperature 53 °F 50 °F 48 °F (2013)
Cooling Degree Days 5    
Growing Degree Days 20 (Base 50)    
Moisture  
Dew Point 36 °F    
Average Humidity 31    
Maximum Humidity 51    
Minimum Humidity 14    
Precipitation  
Precipitation 0.00 in - - ()
Sea Level Pressure  
Sea Level Pressure 30.12 in    
Wind  
Wind Speed 6 mph (SE)    
Max Wind Speed 15 mph    
Max Gust Speed 23 mph    
Visibility 10 miles    
Events      
Averages and records for this station are not official NWS values.
T = Trace of Precipitation, MM = Missing Value Source: NWS Daily Summary

Daily Weather History Graph

Daily Weather History Graph

Search for Another Location

Airport or City:

Trip Planner

Search our weather history database for the weather conditions in past years. The results will help you decide how hot, cold, wet, or windy it might be!

Date:

Astronomy

Oct. 17, 2011 Rise Set
Actual Time 6:56 AM PDT 6:12 PM PDT
Civil Twilight 6:31 AM PDT 6:38 PM PDT
Nautical Twilight 6:01 AM PDT 7:07 PM PDT
Astronomical Twilight 5:32 AM PDT 7:36 PM PDT
Moon 10:07 PM PDT (10/17) 11:56 AM PDT (10/17)
Length of Visible Light 12h 06m
Length of Day
11h 16m
Waning Gibbous, 73% of the Moon is Illuminated
Oct 17
Waning Gibbous
Oct 19
Last Quarter
Oct 26
New
Nov 2
First Quarter
Nov 10
Full

Hourly Weather History & Observations

Time (PDT) Temp. Dew Point Humidity Pressure Visibility Wind Dir Wind Speed Gust Speed Precip Events Conditions
12:35 AM 64.4 °F 32.0 °F 30% 30.10 in 10.0 mi South 4.6 mph - N/A   Clear
1:15 AM 62.6 °F 35.6 °F 37% 30.10 in 10.0 mi SSW 5.8 mph - N/A   Clear
1:35 AM 60.8 °F 35.6 °F 39% 30.10 in 10.0 mi South 5.8 mph - N/A   Clear
1:55 AM 60.8 °F 35.6 °F 39% 30.10 in 10.0 mi South 5.8 mph - N/A   Clear
2:15 AM 62.6 °F 35.6 °F 37% 30.10 in 10.0 mi South 4.6 mph - N/A   Clear
2:35 AM 59.0 °F 35.6 °F 42% 30.10 in 10.0 mi South 6.9 mph - N/A   Clear
2:55 AM 60.8 °F 35.6 °F 39% 30.10 in 10.0 mi Calm Calm - N/A   Clear
3:15 AM 60.8 °F 35.6 °F 39% 30.10 in 10.0 mi SSE 4.6 mph - N/A   Clear
3:35 AM 57.2 °F 33.8 °F 41% 30.10 in 10.0 mi South 5.8 mph - N/A   Clear
3:55 AM 57.2 °F 33.8 °F 41% 30.10 in 10.0 mi South 4.6 mph - N/A   Clear
4:15 AM 55.4 °F 33.8 °F 44% 30.09 in 10.0 mi South 6.9 mph - N/A   Clear
4:35 AM 55.4 °F 35.6 °F 47% 30.09 in 10.0 mi South 8.1 mph - N/A   Clear
4:55 AM 55.4 °F 35.6 °F 47% 30.10 in 10.0 mi South 8.1 mph - N/A   Clear
5:15 AM 57.2 °F 35.6 °F 44% 30.10 in 10.0 mi South 9.2 mph - N/A   Clear
5:35 AM 57.2 °F 35.6 °F 44% 30.11 in 10.0 mi South 5.8 mph - N/A   Clear
5:55 AM 57.2 °F 35.6 °F 44% 30.11 in 10.0 mi SSE 5.8 mph - N/A   Clear
6:15 AM 55.4 °F 35.6 °F 47% 30.11 in 10.0 mi SSE 4.6 mph - N/A   Clear
6:35 AM 55.4 °F 35.6 °F 47% 30.11 in 10.0 mi South 6.9 mph - N/A   Clear
6:55 AM 53.6 °F 35.6 °F 51% 30.12 in 10.0 mi South 6.9 mph - N/A   Clear
7:15 AM 53.6 °F 35.6 °F 51% 30.12 in 10.0 mi South 9.2 mph - N/A   Clear
7:35 AM 55.4 °F 35.6 °F 47% 30.13 in 10.0 mi South 5.8 mph - N/A   Clear
7:55 AM 59.0 °F 37.4 °F 45% 30.15 in 10.0 mi South 5.8 mph - N/A   Clear
8:15 AM 62.6 °F 37.4 °F 39% 30.16 in 10.0 mi South 5.8 mph - N/A   Clear
8:35 AM 64.4 °F 37.4 °F 37% 30.16 in 10.0 mi South 4.6 mph - N/A   Clear
8:55 AM 66.2 °F 37.4 °F 35% 30.17 in 10.0 mi SSE 4.6 mph - N/A   Clear
9:15 AM 69.8 °F 35.6 °F 28% 30.17 in 10.0 mi South 3.5 mph - N/A   Unknown
9:35 AM 71.6 °F 37.4 °F 29% 30.18 in 10.0 mi Calm Calm - N/A   Clear
9:55 AM 73.4 °F 39.2 °F 29% 30.18 in 10.0 mi Calm Calm - N/A   Clear
10:15 AM 73.4 °F 39.2 °F 29% 30.17 in 10.0 mi Calm Calm - N/A   Unknown
10:35 AM 75.2 °F 39.2 °F 27% 30.17 in 10.0 mi Calm Calm - N/A   Clear
10:55 AM 78.8 °F 39.2 °F 24% 30.17 in 10.0 mi Calm Calm - N/A   Clear
11:15 AM 80.6 °F 39.2 °F 23% 30.17 in 10.0 mi NNE 4.6 mph - N/A   Clear
11:35 AM 80.6 °F 39.2 °F 23% 30.17 in 10.0 mi North 5.8 mph - N/A   Clear
11:55 AM 82.4 °F 37.4 °F 20% 30.16 in 10.0 mi NNE 8.1 mph - N/A   Clear
12:15 PM 84.2 °F 37.4 °F 19% 30.15 in 10.0 mi NNE 11.5 mph - N/A   Clear
12:35 PM 84.2 °F 37.4 °F 19% 30.14 in 10.0 mi North 12.7 mph 19.6 mph N/A   Clear
12:55 PM 84.2 °F 35.6 °F 18% 30.14 in 10.0 mi NE 11.5 mph 20.7 mph N/A   Clear
1:15 PM 86.0 °F 35.6 °F 17% 30.13 in 10.0 mi NNE 13.8 mph 21.9 mph N/A   Clear
1:35 PM 87.8 °F 33.8 °F 15% 30.12 in 10.0 mi NE 10.4 mph 20.7 mph N/A   Clear
1:55 PM 87.8 °F 33.8 °F 15% 30.11 in 10.0 mi NE 12.7 mph 16.1 mph N/A   Clear
2:15 PM 87.8 °F 33.8 °F 15% 30.10 in 10.0 mi NE 15.0 mph 20.7 mph N/A   Clear
2:35 PM 87.8 °F 33.8 °F 15% 30.10 in 10.0 mi NNE 9.2 mph 23.0 mph N/A   Clear
2:55 PM 87.8 °F 33.8 °F 15% 30.09 in 10.0 mi NE 11.5 mph 18.4 mph N/A   Clear
3:15 PM 87.8 °F 33.8 °F 15% 30.09 in 10.0 mi NE 12.7 mph 19.6 mph N/A   Clear
3:35 PM 87.8 °F 33.8 °F 15% 30.08 in 10.0 mi NE 13.8 mph 19.6 mph N/A   Clear
3:55 PM 87.8 °F 33.8 °F 15% 30.08 in 10.0 mi NE 13.8 mph 18.4 mph N/A   Clear
4:15 PM 87.8 °F 33.8 °F 15% 30.08 in 10.0 mi NNE 13.8 mph - N/A   Clear
4:35 PM 87.8 °F 33.8 °F 15% 30.08 in 10.0 mi NE 10.4 mph 18.4 mph N/A   Clear
4:55 PM 87.8 °F 33.8 °F 15% 30.08 in 10.0 mi NE 11.5 mph 17.3 mph N/A   Clear
5:15 PM 86.0 °F 32.0 °F 14% 30.08 in 10.0 mi NNE 11.5 mph - N/A   Clear
5:35 PM 84.2 °F 32.0 °F 15% 30.08 in 10.0 mi NE 11.5 mph - N/A   Clear
5:55 PM 82.4 °F 30.2 °F 15% 30.08 in 10.0 mi NE 9.2 mph - N/A   Clear
6:15 PM 80.6 °F 30.2 °F 16% 30.09 in 10.0 mi NNE 8.1 mph - N/A   Clear
6:35 PM 78.8 °F 30.2 °F 17% 30.09 in 10.0 mi NE 9.2 mph - N/A   Clear
6:55 PM 78.8 °F 30.2 °F 17% 30.10 in 10.0 mi NE 5.8 mph - N/A   Clear
7:15 PM 75.2 °F 30.2 °F 19% 30.10 in 10.0 mi ENE 6.9 mph - N/A   Clear
7:35 PM 73.4 °F 30.2 °F 20% 30.10 in 10.0 mi ENE 8.1 mph - N/A   Clear
8:15 PM 75.2 °F 32.0 °F 21% 30.11 in 10.0 mi ENE 5.8 mph - N/A   Clear
8:35 PM 75.2 °F 32.0 °F 21% 30.11 in 10.0 mi ENE 4.6 mph - N/A   Clear
8:55 PM 75.2 °F 30.2 °F 19% 30.11 in 10.0 mi NE 5.8 mph - N/A   Clear
9:15 PM 68.0 °F 30.2 °F 24% 30.12 in 10.0 mi West 4.6 mph - N/A   Clear
9:35 PM 66.2 °F 30.2 °F 26% 30.13 in 10.0 mi West 4.6 mph - N/A   Clear
9:55 PM 66.2 °F 30.2 °F 26% 30.13 in 10.0 mi WSW 4.6 mph - N/A   Clear
10:15 PM 64.4 °F 30.2 °F 28% 30.13 in 10.0 mi WSW 4.6 mph - N/A   Clear
10:35 PM 64.4 °F 30.2 °F 28% 30.13 in 10.0 mi West 5.8 mph - N/A   Clear
11:15 PM 60.8 °F 30.2 °F 31% 30.13 in 10.0 mi SSW 4.6 mph - N/A   Clear
11:35 PM 59.0 °F 30.2 °F 34% 30.13 in 10.0 mi SSW 6.9 mph - N/A   Clear
11:55 PM 59.0 °F 30.2 °F 34% 30.13 in 10.0 mi SSW 4.6 mph - N/A   Clear